• In Uzbekistan
  • List of Countries
  • For 7 days
  • Water Temperature
  • Weather Map
  • Weather Widgets
  • user-avatar
    Login

    Hourly Weather Velikaya Aleksandrovka

    Today, 2 April, Thursday

    Time Temperature Precipitation Wind Pressure Humidity
    00:00 0°C° 0 mm 3 mps 758 mmHg 47%
    01:00 0°C° 0 mm 3 mps 758 mmHg 49%
    02:00 -1°C° 0 mm 3 mps 758 mmHg 50%
    03:00 -1°C° 0 mm 2 mps 757 mmHg 50%
    04:00 -1°C° 0 mm 2 mps 757 mmHg 50%
    05:00 -1°C° 0 mm 2 mps 757 mmHg 50%
    06:00 +1°C° 0 mm 2 mps 757 mmHg 45%
    07:00 +3°C° 0 mm 2 mps 757 mmHg 40%
    08:00 +5°C° 0 mm 2 mps 758 mmHg 35%
    09:00 +6°C° 0 mm 2 mps 757 mmHg 32%
    10:00 +7°C° 0 mm 2 mps 757 mmHg 29%
    11:00 +8°C° 0 mm 2 mps 757 mmHg 26%
    12:00 +9°C° 0 mm 2 mps 757 mmHg 25%
    13:00 +10°C° 0 mm 2 mps 756 mmHg 25%
    14:00 +10°C° 0 mm 3 mps 756 mmHg 24%
    15:00 +10°C° 0 mm 2 mps 756 mmHg 25%
    16:00 +10°C° 0 mm 2 mps 755 mmHg 26%
    17:00 +10°C° 0 mm 2 mps 755 mmHg 26%
    18:00 +8°C° 0 mm 2 mps 755 mmHg 30%
    19:00 +7°C° 0 mm 2 mps 755 mmHg 34%
    20:00 +6°C° 0 mm 1 mps 755 mmHg 38%
    21:00 +6°C° 0 mm 1 mps 755 mmHg 40%
    22:00 +5°C° 0 mm 1 mps 755 mmHg 41%
    23:00 +4°C° 0 mm 1 mps 755 mmHg 42%

    Tomorrow, 3 April, Friday

    Time Temperature Precipitation Wind Pressure Humidity
    00:00 +4°C° 0 mm 1 mps 755 mmHg 43%
    01:00 +4°C° 0 mm 1 mps 755 mmHg 43%
    02:00 +3°C° 0 mm 1 mps 755 mmHg 44%
    03:00 +3°C° 0 mm 1 mps 755 mmHg 44%
    04:00 +3°C° 0 mm 1 mps 755 mmHg 45%
    05:00 +3°C° 0 mm 1 mps 755 mmHg 46%
    06:00 +4°C° 0 mm 1 mps 755 mmHg 43%
    07:00 +6°C° 0 mm 1 mps 755 mmHg 40%
    08:00 +7°C° 0 mm 1 mps 755 mmHg 37%
    09:00 +9°C° 0 mm 1 mps 755 mmHg 36%
    10:00 +9°C° 0 mm 2 mps 755 mmHg 34%
    11:00 +10°C° 0 mm 2 mps 755 mmHg 33%
    12:00 +12°C° 0 mm 2 mps 754 mmHg 31%
    13:00 +13°C° 0 mm 2 mps 754 mmHg 30%
    14:00 +12°C° 0 mm 3 mps 754 mmHg 29%
    15:00 +12°C° 0 mm 3 mps 754 mmHg 29%
    16:00 +12°C° 0 mm 3 mps 754 mmHg 30%
    17:00 +12°C° 0 mm 3 mps 754 mmHg 31%
    18:00 +10°C° 0 mm 3 mps 755 mmHg 36%
    19:00 +8°C° 0 mm 3 mps 755 mmHg 41%
    20:00 +5°C° 0 mm 3 mps 755 mmHg 46%
    21:00 +6°C° 0 mm 2 mps 756 mmHg 46%
    22:00 +5°C° 0 mm 2 mps 756 mmHg 46%
    23:00 +5°C° 0 mm 2 mps 756 mmHg 46%

    Day after tomorrow, 4 April, Saturday

    Time Temperature Precipitation Wind Pressure Humidity
    00:00 +4°C° 0 mm 2 mps 756 mmHg 47%
    01:00 +4°C° 0 mm 2 mps 756 mmHg 48%
    02:00 +3°C° 0 mm 2 mps 757 mmHg 50%
    03:00 +3°C° 0 mm 2 mps 757 mmHg 54%
    04:00 +3°C° 0 mm 2 mps 757 mmHg 58%
    05:00 +3°C° 0 mm 2 mps 757 mmHg 62%
    06:00 +4°C° 0 mm 2 mps 757 mmHg 61%
    07:00 +6°C° 0 mm 2 mps 758 mmHg 60%
    08:00 +7°C° 0 mm 2 mps 758 mmHg 59%
    09:00 +9°C° 0 mm 2 mps 758 mmHg 54%
    10:00 +12°C° 0 mm 2 mps 758 mmHg 49%
    11:00 +14°C° 0 mm 2 mps 759 mmHg 44%
    12:00 +14°C° 0 mm 2 mps 758 mmHg 41%
    13:00 +15°C° 0 mm 2 mps 758 mmHg 38%
    14:00 +16°C° 0 mm 2 mps 758 mmHg 35%
    15:00 +16°C° 0 mm 2 mps 758 mmHg 36%
    16:00 +15°C° 0 mm 2 mps 758 mmHg 38%
    17:00 +15°C° 0 mm 1 mps 758 mmHg 39%
    18:00 +14°C° 0 mm 2 mps 759 mmHg 45%
    19:00 +12°C° 0 mm 2 mps 759 mmHg 52%
    20:00 +9°C° 0 mm 3 mps 760 mmHg 58%
    21:00 +8°C° 0 mm 4 mps 760 mmHg 64%
    22:00 +7°C° 0 mm 5 mps 761 mmHg 70%
    23:00 +7°C° 0 mm 6 mps 761 mmHg 76%

    5 April, Sunday

    Time Temperature Precipitation Wind Pressure Humidity
    00:00 +5°C° 0.2 mm 6 mps 761 mmHg 79%
    01:00 +4°C° 0.2 mm 6 mps 761 mmHg 82%
    02:00 +5°C° 0.2 mm 5 mps 761 mmHg 85%
    03:00 +4°C° 0 mm 4 mps 762 mmHg 87%
    04:00 +3°C° 0 mm 4 mps 762 mmHg 90%
    05:00 +2°C° 0 mm 3 mps 763 mmHg 93%
    06:00 +4°C° 0 mm 4 mps 763 mmHg 80%
    07:00 +5°C° 0 mm 5 mps 763 mmHg 67%
    08:00 +7°C° 0 mm 6 mps 764 mmHg 54%
    09:00 +7°C° 0 mm 6 mps 764 mmHg 49%
    10:00 +8°C° 0 mm 7 mps 764 mmHg 44%
    11:00 +9°C° 0 mm 8 mps 764 mmHg 38%
    12:00 +9°C° 0 mm 8 mps 764 mmHg 37%
    13:00 +9°C° 0 mm 8 mps 764 mmHg 35%
    14:00 +8°C° 0 mm 9 mps 764 mmHg 33%
    15:00 +7°C° 0 mm 9 mps 765 mmHg 33%
    16:00 +6°C° 0 mm 9 mps 765 mmHg 33%
    17:00 +6°C° 0 mm 8 mps 765 mmHg 33%
    18:00 +4°C° 0 mm 7 mps 766 mmHg 34%
    19:00 +3°C° 0 mm 6 mps 767 mmHg 35%
    20:00 +2°C° 0 mm 5 mps 768 mmHg 37%
    21:00 +2°C° 0 mm 5 mps 768 mmHg 39%
    22:00 +1°C° 0 mm 5 mps 768 mmHg 42%
    23:00 +1°C° 0 mm 5 mps 769 mmHg 44%

    6 April, Monday

    Time Temperature Precipitation Wind Pressure Humidity
    00:00 0°C° 0 mm 5 mps 769 mmHg 45%
    01:00 0°C° 0 mm 5 mps 769 mmHg 46%
    02:00 -1°C° 0 mm 5 mps 770 mmHg 47%
    03:00 -1°C° 0 mm 4 mps 770 mmHg 48%
    04:00 -2°C° 0 mm 4 mps 771 mmHg 50%
    05:00 -2°C° 0 mm 4 mps 771 mmHg 52%
    06:00 0°C° 0 mm 5 mps 771 mmHg 47%
    07:00 +1°C° 0 mm 6 mps 772 mmHg 43%
    08:00 +3°C° 0 mm 6 mps 772 mmHg 38%
    09:00 +4°C° 0 mm 6 mps 772 mmHg 37%
    10:00 +5°C° 0 mm 6 mps 772 mmHg 36%
    11:00 +7°C° 0 mm 6 mps 772 mmHg 34%
    12:00 +8°C° 0 mm 6 mps 772 mmHg 34%
    13:00 +9°C° 0 mm 6 mps 772 mmHg 34%
    14:00 +9°C° 0 mm 6 mps 772 mmHg 34%
    15:00 +9°C° 0 mm 5 mps 772 mmHg 35%
    16:00 +9°C° 0 mm 5 mps 771 mmHg 36%
    17:00 +9°C° 0 mm 5 mps 771 mmHg 37%
    18:00 +8°C° 0 mm 4 mps 771 mmHg 41%
    19:00 +6°C° 0 mm 4 mps 772 mmHg 45%
    20:00 +5°C° 0 mm 3 mps 772 mmHg 49%
    21:00 +5°C° 0 mm 3 mps 772 mmHg 50%
    22:00 +5°C° 0 mm 2 mps 772 mmHg 51%
    23:00 +5°C° 0 mm 2 mps 772 mmHg 52%

    7 April, Tuesday

    Time Temperature Precipitation Wind Pressure Humidity
    00:00 +4°C° 0 mm 2 mps 772 mmHg 52%
    01:00 +4°C° 0 mm 2 mps 772 mmHg 53%
    02:00 +4°C° 0 mm 2 mps 772 mmHg 54%
    03:00 +4°C° 0 mm 2 mps 772 mmHg 55%
    04:00 +3°C° 0 mm 2 mps 772 mmHg 56%
    05:00 +3°C° 0 mm 2 mps 772 mmHg 57%
    06:00 +5°C° 0 mm 2 mps 772 mmHg 53%
    07:00 +6°C° 0 mm 2 mps 772 mmHg 49%
    08:00 +8°C° 0 mm 2 mps 772 mmHg 44%
    09:00 +10°C° 0 mm 3 mps 772 mmHg 40%
    10:00 +11°C° 0 mm 3 mps 771 mmHg 36%
    11:00 +12°C° 0 mm 3 mps 771 mmHg 32%
    12:00 +13°C° 0 mm 3 mps 771 mmHg 30%
    13:00 +14°C° 0 mm 3 mps 770 mmHg 29%
    14:00 +16°C° 0 mm 3 mps 770 mmHg 27%
    15:00 +16°C° 0 mm 3 mps 769 mmHg 28%
    16:00 +16°C° 0 mm 3 mps 769 mmHg 30%
    17:00 +14°C° 0 mm 3 mps 768 mmHg 31%
    18:00 +13°C° 0 mm 3 mps 768 mmHg 35%
    19:00 +12°C° 0 mm 2 mps 768 mmHg 38%
    20:00 +9°C° 0 mm 2 mps 768 mmHg 42%
    21:00 +9°C° 0 mm 2 mps 767 mmHg 43%
    22:00 +8°C° 0 mm 2 mps 767 mmHg 45%
    23:00 +8°C° 0 mm 3 mps 767 mmHg 46%
    Show more